Regional Weather Roundup
Issued by NWS Sterling, VA

Home | Current Version | Previous Version | Text Only | Print | Product List | Glossary Off
Versions: 1 2 3 4 5 6 7 8 9 10 11 12 13 14 15 16 17 18 19 20 21 22 23 24 25 26 27

000
ASUS41 KLWX 231110
RWRLWX

REGIONAL WEATHER ROUNDUP
NATIONAL WEATHER SERVICE BALTIMORE MD/WASHINGTON DC
700 AM EDT TUE AUG 23 2016

Note: "FAIR" indicates few or no clouds below 12,000 feet
with no significant weather and/or obstructions to visibility.
 TC=TEMPERATURE CELSIUS

 * =Non NWS site. Station does not report precipitation (e.g. rain,
    snow, etc.), thunder, or fog.

DCZ001-MDZ009-015-VAZ040>042-051-053>054-231200-
WASHINGTON METRO

CITY           SKY/WX    TMP DP  RH WIND       PRES   REMARKS
WASHINGTON NAT PTCLDY    67  60  78 NE6       30.32R
DULLES         MOCLDY    64  58  80 N3        30.32R
ANDREWS AFB    CLEAR     62  58  84 CALM      30.31R
FT BELVOIR     CLOUDY    61  60  95 CALM      30.31R
QUANTICO       MOCLDY    71  60  68 E6        30.32R
COLLEGE PARK*  CLEAR     59  57  94 CALM      30.32R
LEESBURG*      CLOUDY    61  61 100 CALM      30.34R
GAITHERSBURG*  CLEAR     57  54  88 CALM      30.36R

$$

MDZ006>007-011-014-231200-
BALTIMORE METRO

CITY           SKY/WX    TMP DP  RH WIND       PRES   REMARKS
BWI AIRPORT    PTCLDY    60  57  89 CALM      30.32R
MD SCIENCE CTR   N/A     69  56  62 MISG      30.32R
MARTIN STATE   CLEAR     63  61  94 CALM      30.33R
ANNAPOLIS      CLEAR     71  57  61 CALM      30.31R
FORT MEADE*    PTCLDY    55  55 100 CALM      30.34R

$$

MDZ012-015-019>023-231200-
MARYLAND EASTERN SHORE

CITY           SKY/WX    TMP DP  RH WIND       PRES   REMARKS
OCEAN CITY     CLEAR     69  56  62 NE6       30.29R
SALISBURY      CLEAR     59  57  93 CALM      30.30R
BAY BRIDGE AP* CLEAR     66  55  68 E3        30.31R
CAMBRIDGE*     CLEAR     55  55 100 CALM      30.31R
EASTON*        CLEAR     61  59  94 CALM      30.35R

$$

MDZ017>025-231200-
SOUTHERN MARYLAND

CITY           SKY/WX    TMP DP  RH WIND       PRES   REMARKS
PATUXENT RIVER CLEAR     70  53  54 E12       30.30R
ST INIGOES     PTCLDY    64  60  87 CALM      30.30R
LEONARDTOWN*   CLEAR     63  55  77 CALM      30.32R

$$

MDZ003>005-231200-
NORTH CENTRAL MARYLAND

CITY           SKY/WX    TMP DP  RH WIND       PRES   REMARKS
FREDERICK*     CLEAR     57  57 100 CALM      30.36R
HAGERSTOWN APT CLEAR     60  53  77 CALM      30.33R

$$

MDZ501>502-231200-
WESTERN MARYLAND

CITY           SKY/WX    TMP DP  RH WIND       PRES   REMARKS
OAKLAND*       PTCLDY    55  54  94 SE7       30.39R
CUMBERLAND*    CLEAR     59  57  94 CALM      30.38R

$$

VAZ025>031-231200-
SHENANDOAH VALLEY

CITY           SKY/WX    TMP DP  RH WIND       PRES   REMARKS
WINCHESTER*    CLOUDY    59  57  94 CALM      30.33R
FRONT ROYAL*   CLOUDY    57  57 100 CALM      30.33R
LURAY*         PTSUNNY  N/A N/A N/A CALM      30.34R HAZE
NEW MARKET*    CLOUDY   N/A N/A N/A CALM      30.33R
STAUNTON*      CLOUDY    59  58  97 CALM      30.36R
WAYNESBORO*    CLOUDY    60  59  95 MISG      30.35R

$$

WVZ021-048>050-054>055-231200-
EASTERN WEST VIRGINIA PANHANDLE

CITY           SKY/WX    TMP DP  RH WIND       PRES   REMARKS
MARTINSBURG    CLOUDY    58  57  97 CALM      30.33R
PETERSBURG*    PTCLDY    56  55  98 CALM      30.35R

$$

VAZ036>039-050-231200-
CENTRAL FOOTHILLS

CITY           SKY/WX    TMP DP  RH WIND       PRES   REMARKS
CHARLOTTESVILL MOCLDY    64  60  87 CALM      30.32R
CULPEPER*      PTCLDY    61  60  97 CALM      30.33R
ORANGE*          N/A     63  63 100 CALM      30.34R
GORDONSVILLE*  NOT AVBL
WARRENTON*     FAIR      61  56  85 CALM      30.32R

$$

VAZ055>057-231200-
NORTH AND CENTRAL PIEDMONT

CITY           SKY/WX    TMP DP  RH WIND       PRES   REMARKS
FREDERICKSBRG*   N/A     66  66  99 CALM      30.30R
STAFFORD*      MOCLDY    63  61  94 NW5       30.35R

$$

NCZ024-NYZ072-PAZ021-071-VAZ022-071-231200-
OTHER REGIONAL OBSERVATIONS

CITY           SKY/WX    TMP DP  RH WIND       PRES   REMARKS
NEW YORK CITY  CLEAR     64  49  57 W6        30.32R
PHILADELPHIA   PTCLDY    62  52  69 NW6       30.32R
PITTSBURGH     PTCLDY    57  54  89 CALM      30.31R
ROANOKE        MOCLDY    60  57  89 W5        30.35R
RICHMOND       PTCLDY    65  61  87 NE5       30.29R
RALEIGH        PTCLDY    65  61  87 CALM      30.28R

$$

ANZ530>537-231200-
MARINE OBSERVATIONS

STATION/POSITION TIME  TEMP    WIND        PRES
                       AIR SEA DIR/SP/G
                 (UTC) (F)     (DEG/KT/KT) (MB)
THOMAS PT LIGHT  1100   72 82  100/  9/ 10 1027.6R
BALT KEY BRIDGE  1048   67      20/  6/  7 1026.4R
COVE POINT       1048   71     120/ 11/ 15 1026.7R
LEWISETTA        1048   76 82  100/ 12/ 14 1025.4R
SOLOMONS ISLAND  1042   73 84   70/ 11/ 12   N/A
PINEY POINT      1048           70/  5/  6   N/A

$$





USA.gov is the U.S. government's official web portal to all federal, state and local government web resources and services.